Weather History for Fort Payne, AL

Change the Weather History Date:

Tuesday, April 30, 2013

  Actual Average (KRMG) Record (KRMG)
Temperature  
Mean Temperature 62 °F 64 °F  
Max Temperature 77 °F 76 °F 88 °F (2012)
Min Temperature 46 °F 51 °F 37 °F (2008)
Degree Days  
Heating Degree Days 4 3  
Month to date heating degree days 187  
Since 1 July heating degree days 3213  
Cooling Degree Days 0 2  
Month to date cooling degree days 29  
Year to date cooling degree days 33  
Growing Degree Days 12 (Base 50)    
Moisture  
Dew Point 49 °F    
Average Humidity 65    
Maximum Humidity 94    
Minimum Humidity 29    
Precipitation  
Precipitation 0.00 in 0.16 in 1.31 in (2005)
Month to date precipitation 4.05  
Year to date precipitation 18.69  
Sea Level Pressure  
Sea Level Pressure 30.01 in    
Wind  
Wind Speed 0 mph (SE)    
Max Wind Speed 7 mph    
Max Gust Speed -    
Visibility 9 miles    
Events      
T = Trace of Precipitation, MM = Missing Value Source: NWS Daily Summary

Daily Weather History Graph

Daily Weather History Graph

Search for Another Location

Airport:

Trip Planner

Search our weather history database for the weather conditions in past years. The results will help you decide how hot, cold, wet, or windy it might be!

Date:

Astronomy

Apr. 30, 2013 Rise Set
Actual Time 5:53 AM CDT 7:26 PM CDT
Civil Twilight 5:26 AM CDT 7:53 PM CDT
Nautical Twilight 4:54 AM CDT 8:26 PM CDT
Astronomical Twilight 4:21 AM CDT 8:59 PM CDT
Moon No Moon Rise 10:24 AM CDT (4/30)
Length of Visible Light 14h 26m
Length of Day
13h 33m
Waning Gibbous, 70% of the Moon is Illuminated
Apr 30
Waning Gibbous
May 2
Last Quarter
May 9
New
May 17
First Quarter
May 24
Full

Hourly Weather History & Observations

Time (CDT) Temp. Dew Point Humidity Pressure Visibility Wind Dir Wind Speed Gust Speed Precip Events Conditions
12:15 AM 51.8 °F 50.0 °F 94% 29.98 in 10.0 mi Calm Calm - N/A   Clear
12:35 AM 50.0 °F 46.4 °F 87% 29.98 in 7.0 mi NNE 3.5 mph - N/A   Clear
12:55 AM 51.8 °F 48.2 °F 88% 29.97 in 10.0 mi Calm Calm - N/A   Clear
1:15 AM 50.0 °F 48.2 °F 94% 29.97 in 10.0 mi Calm Calm - N/A   Clear
1:35 AM 50.0 °F 46.4 °F 87% 29.97 in 7.0 mi Calm Calm - N/A   Clear
1:55 AM 50.0 °F 46.4 °F 87% 29.96 in 7.0 mi Calm Calm - N/A   Clear
2:15 AM 48.2 °F 46.4 °F 93% 29.96 in 10.0 mi Calm Calm - N/A   Clear
2:35 AM 48.2 °F 46.4 °F 93% 29.96 in 5.0 mi Calm Calm - N/A   Clear
2:55 AM 48.2 °F 46.4 °F 93% 29.96 in 10.0 mi Calm Calm - N/A   Clear
3:15 AM 48.2 °F 44.6 °F 87% 29.97 in 7.0 mi Calm Calm - N/A   Clear
3:35 AM 46.4 °F 44.6 °F 93% 29.98 in 7.0 mi Calm Calm - N/A   Clear
3:55 AM 46.4 °F 44.6 °F 93% 29.98 in 7.0 mi Calm Calm - N/A   Clear
4:15 AM 46.4 °F 44.6 °F 93% 29.98 in 7.0 mi Calm Calm - N/A   Clear
4:35 AM 46.4 °F 44.6 °F 93% 29.98 in 7.0 mi Calm Calm - N/A   Clear
4:55 AM 46.4 °F 44.6 °F 93% 29.99 in 7.0 mi Calm Calm - N/A   Clear
5:15 AM 46.4 °F 44.6 °F 93% 29.99 in 7.0 mi Calm Calm - N/A   Clear
5:35 AM 46.4 °F 44.6 °F 93% 30.00 in 7.0 mi Calm Calm - N/A   Clear
5:55 AM 46.4 °F 44.6 °F 93% 30.01 in 10.0 mi Calm Calm - N/A   Clear
6:15 AM 46.4 °F 44.6 °F 93% 30.01 in 7.0 mi Calm Calm - N/A   Clear
6:35 AM 46.4 °F 44.6 °F 93% 30.02 in 7.0 mi Calm Calm - N/A   Clear
6:55 AM 48.2 °F 46.4 °F 93% 30.03 in 10.0 mi Calm Calm - N/A   Clear
7:15 AM 51.8 °F 50.0 °F 94% 30.04 in 10.0 mi Calm Calm - N/A   Clear
7:35 AM 53.6 °F 50.0 °F 88% 30.04 in 10.0 mi Calm Calm - N/A   Clear
7:55 AM 55.4 °F 51.8 °F 88% 30.04 in 10.0 mi Calm Calm - N/A   Clear
8:15 AM 57.2 °F 51.8 °F 82% 30.04 in 10.0 mi Calm Calm - N/A   Clear
8:35 AM 60.8 °F 53.6 °F 77% 30.04 in 10.0 mi Calm Calm - N/A   Clear
8:55 AM 62.6 °F 53.6 °F 72% 30.05 in 10.0 mi Calm Calm - N/A   Clear
9:15 AM 64.4 °F 53.6 °F 68% 30.04 in 10.0 mi Calm Calm - N/A   Clear
9:35 AM 68.0 °F 55.4 °F 64% 30.05 in 10.0 mi Calm Calm - N/A   Clear
9:55 AM 69.8 °F 51.8 °F 53% 30.05 in 10.0 mi Calm Calm - N/A   Clear
10:15 AM 71.6 °F 48.2 °F 43% 30.04 in 10.0 mi Calm Calm - N/A   Scattered Clouds
10:35 AM 71.6 °F 46.4 °F 41% 30.04 in 10.0 mi Calm Calm - N/A   Scattered Clouds
10:55 AM 71.6 °F 46.4 °F 41% 30.04 in 10.0 mi Calm Calm - N/A   Scattered Clouds
11:15 AM 71.6 °F 48.2 °F 43% 30.04 in 10.0 mi Calm Calm - N/A   Scattered Clouds
11:35 AM 71.6 °F 48.2 °F 43% 30.03 in 10.0 mi Calm Calm - N/A   Scattered Clouds
11:55 AM 73.4 °F 50.0 °F 44% 30.02 in 10.0 mi South 6.9 mph - N/A   Scattered Clouds
12:15 PM 73.4 °F 50.0 °F 44% 30.02 in 10.0 mi Calm Calm - N/A   Clear
12:35 PM 73.4 °F 50.0 °F 44% 30.02 in 10.0 mi SE 6.9 mph - N/A   Scattered Clouds
12:55 PM 73.4 °F 50.0 °F 44% 30.02 in 10.0 mi Calm Calm - N/A   Mostly Cloudy
1:15 PM 73.4 °F 46.4 °F 38% 30.02 in 10.0 mi Calm Calm - N/A   Scattered Clouds
1:35 PM 75.2 °F 44.6 °F 34% 30.02 in 10.0 mi Calm Calm - N/A   Clear
1:55 PM 75.2 °F 46.4 °F 36% 30.01 in 10.0 mi Calm Calm - N/A   Clear
2:15 PM 75.2 °F 44.6 °F 34% 30.02 in 10.0 mi SE 4.6 mph - N/A   Clear
2:35 PM 77.0 °F 42.8 °F 29% 30.01 in 10.0 mi Calm Calm - N/A   Clear
2:55 PM 77.0 °F 44.6 °F 32% 30.01 in 10.0 mi Calm Calm - N/A   Clear
3:15 PM 77.0 °F 44.6 °F 32% 30.00 in 10.0 mi Calm Calm - N/A   Clear
3:35 PM 77.0 °F 46.4 °F 34% 29.99 in 10.0 mi SE 3.5 mph - N/A   Clear
3:55 PM 77.0 °F 46.4 °F 34% 29.98 in 10.0 mi Calm Calm - N/A   Scattered Clouds
4:15 PM 77.0 °F 46.4 °F 34% 29.98 in 10.0 mi South 3.5 mph - N/A   Scattered Clouds
4:35 PM 77.0 °F 46.4 °F 34% 29.99 in 10.0 mi Calm Calm - N/A   Clear
4:55 PM 77.0 °F 46.4 °F 34% 29.99 in 10.0 mi Calm Calm - N/A   Scattered Clouds
5:15 PM 77.0 °F 48.2 °F 36% 30.00 in 10.0 mi Calm Calm - N/A   Scattered Clouds
5:35 PM 77.0 °F 48.2 °F 36% 29.99 in 10.0 mi Calm Calm - N/A   Clear
5:55 PM 77.0 °F 50.0 °F 39% 29.99 in 10.0 mi Calm Calm - N/A   Clear
6:15 PM 75.2 °F 50.0 °F 41% 29.99 in 10.0 mi Calm Calm - N/A   Clear
6:35 PM 73.4 °F 51.8 °F 47% 29.99 in 10.0 mi Calm Calm - N/A   Clear
6:55 PM 73.4 °F 51.8 °F 47% 30.00 in 10.0 mi Calm Calm - N/A   Clear
7:15 PM 69.8 °F 55.4 °F 60% 30.00 in 10.0 mi Calm Calm - N/A   Clear
7:35 PM 68.0 °F 55.4 °F 64% 30.01 in 10.0 mi Calm Calm - N/A   Clear
7:55 PM 64.4 °F 55.4 °F 73% 30.01 in 10.0 mi Calm Calm - N/A   Clear
8:15 PM 64.4 °F 55.4 °F 73% 30.02 in 10.0 mi Calm Calm - N/A   Clear
8:35 PM 62.6 °F 55.4 °F 77% 30.03 in 10.0 mi Calm Calm - N/A   Clear
8:55 PM 62.6 °F 53.6 °F 72% 30.04 in 10.0 mi Calm Calm - N/A   Clear
9:15 PM 60.8 °F 55.4 °F 82% 30.05 in 10.0 mi Calm Calm - N/A   Clear
9:35 PM 60.8 °F 55.4 °F 82% 30.05 in 10.0 mi Calm Calm - N/A   Clear
9:55 PM 69.8 °F 51.8 °F 53% 30.06 in 10.0 mi Calm Calm - N/A   Clear
10:15 PM 68.0 °F 51.8 °F 56% 30.06 in 10.0 mi Calm Calm - N/A   Clear
10:35 PM 68.0 °F 51.8 °F 56% 30.06 in 10.0 mi Calm Calm - N/A   Clear
11:15 PM 64.4 °F 53.6 °F 68% 30.08 in 10.0 mi Calm Calm - N/A   Clear
11:35 PM 64.4 °F 53.6 °F 68% 30.08 in 10.0 mi Calm Calm - N/A   Clear